User: anonymous   Login
Location: Ladysmith
(45.4630°N, 91.1040°W)
Time: 01:45:50
(UTC-05:00)
Language:

SO-67 - Orbit

View from above orbital plane
View from above orbital plane
View from above satellite
View from above satellite

Ground track
Ground track

The orbit data is extracted from the following two-line orbital elements,

1 35870U 09049F   17208.95128995 +.00004240 +00000-0 +67400-4 0  9992
2 35870 097.1010 225.2989 0000520 006.1694 056.1694 15.53868073439556
Epoch (UTC): 27 July 2017 22:49:51
Eccentricity: 0.0000520
inclination: 97.1010°
perigee height: 405 km
apogee height: 406 km
right ascension of ascending node: 225.2989°
argument of perigee: 6.1694°
revolutions per day: 15.53868073
mean anomaly at epoch: 56.1694°
orbit number at epoch: 43955

The dashed part of the orbit path shows where the satellite is in the earth's shadow,  

DLR